Simultaneous Nadir Overpasses (SNOs) Predictions

Prediction of SNOs between NOAA-19 and METOP-C Satellite Orbit:

Table of predicted SNOs for the next 14.0 days since TLE Epoch: 10/17/2023
Index Date (NOAA-19) Time (NOAA-19) Lat,Lon (NOAA-19) SZA (NOAA-19 ) Date (METOP-C) Time (METOP-C) Lat,Lon (METOP-C) SZA (METOP-C ) Distance(km) Time Diff (sec)
1 10/23/2023 17:43:06 80.83, -52.69 94.09 10/23/2023 17:44:07 80.83, -52.86 94.10 3.05 61
2 10/23/2023 18:34:03 -80.83, 114.52 85.91 10/23/2023 18:34:49 -80.83, 114.44 85.90 1.54 46
3 10/23/2023 19:25:04 80.84, -77.91 94.15 10/23/2023 19:25:28 80.84, -77.99 94.15 1.28 24
4 10/23/2023 20:16:01 -80.84, 89.29 85.85 10/23/2023 20:16:10 -80.84, 89.31 85.85 0.38 9
5 10/23/2023 21:07:02 80.85,-103.14 94.20 10/23/2023 21:06:49 80.85,-103.12 94.20 0.64 13
6 10/23/2023 21:57:59 -80.85, 64.06 85.80 10/23/2023 21:57:31 -80.85, 64.18 85.79 2.25 28
7 10/23/2023 22:49:01 80.84,-128.73 94.22 10/23/2023 22:48:11 80.84,-128.60 94.21 2.37 50



Historial Predications of SNOs between NOAA-19 and METOP-C
